Location: Muenchen
(48.1800°N, 11.5800°E)
Time: 09:20:46
(UTC+02:00)

Vanguard 2 Rocket - Visible Passes

Search period start: 29 August 2015 00:00
Search period end: 08 September 2015 00:00
Orbit: 554 x 3331 km, 32.9° (Epoch: 28 August)

Date Brightness Start Highest point End Pass type
(mag) Time Alt. Az. Time Alt. Az. Time Alt. Az.
29 Aug 10.8 03:21:56 10° SSE 03:28:12 13° SE 03:36:18 10° ESE visible
29 Aug 10.5 05:27:33 10° SSW 05:43:28 32° SSE 05:57:45 10° E visible
30 Aug 10.6 04:28:47 10° SSW 04:42:55 26° SSE 04:57:03 10° E visible
31 Aug 10.6 03:31:50 11° S 03:42:32 20° SE 03:55:14 10° E visible
31 Aug 10.3 05:40:50 10° SW 05:58:05 39° SSE 06:13:24 10° E visible
01 Sep 10.7 02:36:10 10° SSE 02:42:24 14° SE 02:51:14 10° ESE visible
01 Sep 10.4 04:42:00 11° SSW 04:57:21 33° SSE 05:13:02 10° E visible
02 Sep 10.4 03:46:18 16° S 03:56:49 27° SE 04:11:55 10° E visible
02 Sep 10.2 05:54:41 10° SW 06:12:42 44° SSE 06:28:43 10° ESE visible
03 Sep 10.4 02:50:34 17° SSE 02:56:34 21° SE 03:09:42 10° E visible
03 Sep 10.2 04:56:24 13° SW 05:11:50 40° SSE 05:28:33 10° E visible
04 Sep 10.6 01:54:47 13° SE 01:56:41 14° SE 02:05:18 10° ESE visible
04 Sep 10.2 04:00:38 20° SSW 04:11:08 34° SSE 04:27:45 10° E visible
05 Sep 10.2 03:04:49 23° S 03:10:45 28° SE 03:26:12 10° E visible
05 Sep 10.1 05:10:39 14° SW 05:26:23 45° SSE 05:43:46 10° E visible
06 Sep 10.3 02:08:59 20° SE 02:10:43 20° SE 02:23:33 10° E visible
06 Sep 10.0 04:14:49 23° SSW 04:25:32 40° SSE 04:43:09 10° E visible
07 Sep 10.6 01:13:09 13° ESE 01:13:09 13° ESE 01:18:38 10° ESE visible
07 Sep 9.9 03:18:59 28° S 03:24:58 34° SSE 03:41:54 10° E visible
07 Sep 10.0 05:24:49 14° SW 05:40:59 49° S 05:58:48 10° ESE visible
